Tracking 32139 objects as of 18-Nov-2025
HD Live streaming from Space Station
objects crossing your sky now

STARLINK-31095

Track STARLINK-31095 now!
10-day predictions
STARLINK-31095 is classified as:


NORAD ID: 58683
Int'l Code: 2023-211S
Perigee: 489.3 km
Apogee: 491.1 km
Inclination: 43.0 °
Period: 94.3 minutes
Semi major axis: 6861 km
RCS: Unknown
Launch date: December 29, 2023
Source: United States (US)
Launch site: AIR FORCE EASTERN TEST RANGE (AFETR)
Your satellite tracking list
Your tracking list is empty




NASA's NSSDC Master Catalog

Two Line Element Set (TLE):
1 58683U 23211S   25321.83052238 -.00001881  00000-0 -58852-4 0  9995
2 58683  43.0062 357.3073 0001357 280.2091  79.8608 15.27572162106624
Source of the keplerian elements: AFSPC